Tracking 18850 objects as of 22-Nov-2017
HD Live streaming from Space Station
objects crossing your sky now

FENGYUN 1C DEB

Track FENGYUN 1C DEB now!
10-day predictions


NORAD ID: 30945
Int'l Code: 1999-025BAK
Perigee: 834.0 km
Apogee: 890.4 km
Inclination: 99.4 °
Period: 102.0 minutes
Semi major axis: 7233 km
RCS: 0.0033 m2 (small)
Launch date: May 10, 1999
Source: People's Republic of China (PRC)
Launch site: Taiyaun Space Center, China (TSC)

Note: This is SATELLITE DEBRIS
aabbcc
Your satellite tracking list
Your tracking list is empty




NASA's NSSDC Master Catalog

Two Line Element Set (TLE):
1 30945U 99025BAK 17325.71710826  .00000974  00000-0  56195-3 0  9995
2 30945  99.4086 143.2327 0038993  11.1251  45.2208 14.11270285547989
Source of the keplerian elements: AFSPC